Theta_e
353 349 346 344 351 354 358 355 350 351 352 350 351 350 350 352 352 345 344 343 342 343 343 342 337 340 337 336 337 340 343 342 341 341 340 341 340 335 333 332 332 334 336 334 332 331 330 330 330
354 350 353 345 351 357 358 356 353 350 350 350 349 349 350 350 351 345 342 341 341 339 344 342 337 336 335 331 332 332 339 342 341 340 339 339 338 332 333 332 332 333 333 332 331 330 330 331 332
350 355 351 350 351 356 359 354 353 351 350 350 350 351 350 352 349 342 342 340 339 335 336 341 332 332 334 328 329 329 329 340 341 341 339 338 338 331 330 330 330 330 330 328 328 329 332 334 336
343 354 352 353 358 356 355 353 350 349 350 349 349 351 345 347 342 343 341 340 339 336 331 332 330 329 328 328 328 341 332 331 329 337 339 338 337 333 330 329 329 329 327 327 329 332 335 339 338
344 348 352 352 355 353 352 352 350 353 353 351 350 353 351 346 344 341 340 340 339 338 338 337 332 331 332 331 329 329 331 335 335 330 333 336 335 332 330 329 329 329 330 330 331 332 334 335 335
345 348 350 351 352 354 353 352 353 352 351 352 352 352 351 349 345 341 340 340 339 339 339 339 339 338 338 336 332 330 330 332 336 340 338 335 330 331 330 330 332 331 329 330 335 336 335 335 336
341 346 349 351 352 351 353 353 351 351 351 349 351 352 350 351 348 347 341 340 340 340 339 340 340 340 341 341 340 340 335 332 336 337 333 332 336 332 332 332 332 329 329 334 334 332 334 337 338
344 342 348 348 352 349 351 352 352 352 353 350 350 351 349 351 349 347 342 341 341 340 339 339 339 340 341 340 341 341 341 341 340 340 338 339 337 336 334 331 331 331 331 335 331 333 335 338 335
343 340 345 347 351 349 352 354 353 353 349 353 346 351 350 350 349 348 347 343 343 340 339 338 337 337 336 337 337 341 339 340 338 339 340 340 338 338 337 333 332 332 332 330 329 336 337 338 331
339 340 343 343 345 350 352 345 351 354 353 353 350 350 350 350 349 349 348 348 345 341 340 339 339 338 337 336 336 337 340 339 339 340 340 342 341 339 338 338 333 332 331 329 335 338 338 334 333
340 340 341 342 345 348 351 351 352 352 353 350 349 350 351 350 349 349 349 350 349 347 342 341 341 339 338 338 336 337 338 338 338 339 341 340 340 341 340 340 334 330 331 339 339 338 336 332 336
339 339 341 341 344 345 350 350 349 350 349 348 348 351 350 350 350 350 350 350 348 348 347 342 342 341 339 339 337 337 339 339 338 341 341 340 338 337 336 334 332 336 341 333 334 332 331 335 335
336 337 339 340 342 344 347 350 350 344 349 348 346 349 351 350 350 350 351 349 348 345 348 345 345 346 343 341 340 338 338 342 342 343 340 340 342 343 339 339 339 337 332 332 329 332 331 335 342
331 334 338 339 340 341 344 343 345 348 349 348 345 347 350 351 351 351 351 350 349 347 348 348 348 348 343 344 346 344 343 344 344 345 343 340 342 343 341 344 342 342 338 337 338 343 343 342 339
332 332 332 335 337 338 341 341 341 348 350 349 347 343 346 350 351 351 351 349 346 346 348 350 348 348 347 346 348 347 344 345 345 345 343 341 342 341 339 341 340 342 342 343 340 339 342 344 342
329 332 335 335 333 334 334 331 333 345 350 348 346 344 341 349 351 351 350 349 349 348 348 349 349 348 348 347 346 347 345 346 346 346 344 344 343 341 339 338 342 340 340 342 343 343 343 340 341
327 330 335 336 334 333 332 331 330 349 349 348 347 345 343 347 350 351 350 348 350 350 349 349 349 348 348 347 347 347 347 347 345 345 345 346 345 340 343 346 343 341 341 344 343 342 342 343 342
329 328 330 334 333 332 331 330 329 347 350 350 349 348 346 347 349 350 349 349 350 350 350 349 348 348 348 348 348 346 346 346 346 347 344 343 345 344 343 344 341 344 345 343 343 344 342 341 343
327 326 326 327 329 333 330 328 328 333 343 343 347 350 349 349 349 349 350 350 350 351 350 349 349 349 349 349 348 347 346 346 347 346 346 345 345 346 345 345 341 343 345 346 342 343 344 343 344
325 325 325 325 326 328 329 328 327 327 335 340 341 343 349 349 350 350 350 350 349 349 349 349 349 348 349 348 348 347 346 346 347 345 346 345 344 345 346 345 341 341 345 342 343 344 343 344 345
324 323 324 325 326 327 328 327 327 327 329 331 336 341 343 346 348 348 347 349 348 348 349 349 349 347 347 348 348 348 348 346 346 345 346 344 344 345 345 346 341 338 338 338 340 343 344 344 344
324 324 325 328 325 326 326 326 326 327 329 334 339 341 342 345 346 347 346 347 347 347 349 349 349 348 347 347 349 349 348 346 345 345 344 344 343 345 345 344 341 337 335 341 343 345 346 344 343
325 325 326 326 324 324 326 325 326 328 331 331 330 339 341 343 345 346 346 346 346 347 347 349 348 348 348 348 349 348 347 344 344 345 344 344 343 345 345 344 342 340 337 343 345 346 347 346 344
324 324 322 322 321 324 323 327 331 330 332 331 335 339 337 340 344 346 345 346 347 347 348 348 348 349 348 349 349 347 347 344 345 344 344 343 343 345 344 344 342 340 341 344 343 343 345 342 345
323 320 323 326 326 327 322 330 330 333 333 338 342 344 340 335 345 345 345 347 348 348 347 347 348 348 349 348 348 347 347 347 347 348 347 346 345 344 344 343 341 340 343 344 344 344 344 343 344
326 322 322 330 327 326 324 330 333 337 341 344 346 345 345 345 345 346 346 346 347 347 347 348 349 348 349 348 348 348 347 346 346 347 345 345 346 344 344 343 341 342 345 343 344 342 342 345 348
326 325 322 322 321 325 327 330 334 341 341 344 346 346 345 346 346 347 342 336 337 346 347 348 349 349 349 349 349 349 349 348 346 346 346 346 343 342 340 342 342 343 342 340 343 344 344 344 343
326 324 325 321 330 332 329 330 330 343 342 342 343 345 349 348 347 346 338 338 338 347 345 348 348 348 349 349 350 349 350 349 349 348 347 345 343 341 341 344 344 344 342 340 341 343 344 341 345
323 323 320 320 323 330 330 330 333 342 342 341 342 347 349 349 348 344 335 338 338 342 349 350 349 349 350 349 350 351 351 350 350 349 347 344 344 343 344 345 345 342 343 342 343 343 340 342 344
323 324 319 321 323 324 325 329 337 340 338 337 342 347 348 347 344 342 340 338 337 337 346 344 347 349 350 350 350 351 352 351 350 348 344 342 341 343 343 347 344 345 344 344 343 341 343 342 343
Wind_Speed
9 6 5 4 5 5 2 5 5 4 1 3 19 4 5 3 1 3 17 28 28 28 26 26 25 23 21 20 21 22 23 24 25 25 23 23 22 22 22 18 17 16 14 13 12 11 10 8 8
11 5 7 5 5 4 4 6 5 4 6 20 13 8 3 2 2 16 31 24 28 29 27 27 27 26 23 22 21 21 22 23 23 24 21 22 22 22 20 17 17 16 13 11 10 9 8 7 6
11 6 6 4 3 3 4 3 6 11 5 4 4 7 3 3 11 33 21 28 28 27 26 25 26 26 26 23 22 21 20 20 21 20 20 21 21 21 19 18 17 15 13 10 8 8 7 6 5
6 3 5 4 3 2 3 7 7 5 6 11 12 5 7 4 28 21 28 28 26 26 24 24 25 25 25 23 22 22 21 20 20 18 19 21 22 21 18 17 15 13 11 9 8 6 5 5 5
3 2 4 3 4 3 5 10 14 4 2 8 8 4 6 18 14 24 27 27 26 25 23 22 22 22 21 21 21 22 21 19 18 18 19 21 21 20 17 16 14 12 10 8 6 5 4 4 4
2 1 3 2 3 7 8 10 9 7 6 12 8 8 6 10 22 25 25 25 24 23 23 21 21 21 20 20 20 20 19 19 16 15 18 19 19 15 16 16 14 12 10 7 5 4 4 4 5
6 3 4 2 3 5 6 18 11 8 8 3 17 4 5 13 24 23 23 22 22 21 21 21 20 20 19 18 18 17 17 18 15 13 17 16 16 17 14 14 13 12 10 8 6 4 4 4 5
2 3 2 1 1 1 8 7 9 7 4 11 13 5 7 25 25 26 26 24 23 20 19 19 19 19 18 17 16 16 14 14 14 12 15 15 16 16 20 16 14 12 10 8 6 5 6 3 4
4 4 1 3 5 4 14 5 5 2 12 5 5 6 13 31 29 28 26 28 26 24 20 18 17 16 16 15 15 14 13 12 12 12 13 14 17 18 15 20 17 14 11 9 8 6 6 4 5
4 4 7 4 5 6 16 15 12 7 7 4 5 13 31 33 34 32 31 31 28 26 24 21 17 15 15 15 15 15 14 13 11 10 10 12 12 20 20 17 21 16 12 11 10 8 6 6 6
6 5 4 4 6 15 18 9 15 9 3 9 21 28 34 37 37 34 31 29 27 22 23 23 21 18 16 16 15 15 13 11 9 10 10 9 10 15 20 18 23 16 12 9 9 8 7 8 7
3 5 9 7 10 8 12 12 8 17 7 15 26 32 39 41 41 38 33 29 25 24 23 24 22 21 19 16 15 13 12 10 10 9 11 12 11 9 11 15 17 13 13 10 10 8 8 9 9
2 4 9 13 13 14 14 17 9 19 6 22 28 33 41 44 43 38 30 26 24 19 26 27 24 20 19 19 15 14 12 10 10 11 9 14 11 8 12 13 12 10 11 10 9 9 9 10 11
6 6 9 11 14 9 7 4 8 14 16 28 31 35 37 44 45 39 36 28 34 25 27 28 24 21 19 20 17 15 12 11 11 9 10 13 13 10 10 13 10 8 6 7 9 9 8 7 10
8 4 2 8 11 5 8 4 7 14 24 29 33 33 34 41 46 44 40 34 32 31 28 28 25 22 22 18 19 16 14 14 12 9 10 10 13 11 11 9 8 7 8 8 10 11 10 10 13
5 3 2 3 5 4 9 9 7 20 31 27 29 33 36 39 46 45 39 36 31 29 30 29 26 23 21 21 20 19 15 14 13 13 11 11 12 13 11 10 8 8 9 11 12 12 11 9 11
6 3 3 6 8 4 4 9 5 29 32 26 30 31 35 41 39 42 42 37 37 29 29 29 27 24 23 21 20 19 17 15 14 14 13 12 14 15 12 9 9 9 9 10 9 9 11 12 12
6 5 6 4 3 5 5 13 1 21 23 24 31 32 34 37 43 39 40 35 37 33 30 29 27 25 25 22 21 19 16 19 17 17 17 15 14 15 15 12 11 11 10 10 12 9 10 10 11
6 4 8 4 3 4 7 7 11 18 25 19 25 32 37 41 38 39 39 35 35 35 33 30 28 26 28 27 25 22 22 21 22 18 20 20 16 15 16 18 15 15 12 10 9 9 8 10 11
8 6 6 5 4 5 3 9 10 6 12 31 31 33 41 37 37 37 39 36 36 33 33 31 28 25 25 27 24 23 20 22 22 19 22 19 18 17 16 17 18 17 14 10 11 12 12 13 11
4 6 3 5 5 4 5 9 5 5 9 13 24 39 37 39 41 37 37 38 35 34 31 30 27 22 24 25 24 25 22 23 25 24 25 22 20 21 17 14 18 20 18 15 14 14 13 13 11
2 2 3 4 3 3 3 5 7 7 8 5 8 25 36 36 37 41 37 38 37 32 31 30 27 24 23 23 24 24 23 24 27 28 27 23 21 23 20 19 15 15 19 15 13 14 15 16 12
7 2 3 3 2 3 4 3 8 5 7 6 5 16 25 32 39 41 41 37 36 31 30 30 27 24 23 24 23 25 24 21 20 25 27 27 25 23 22 21 21 24 21 15 16 15 16 15 14
3 4 6 5 3 3 5 4 6 5 5 5 9 8 14 30 36 38 35 36 34 30 33 31 29 26 22 24 25 25 23 20 20 20 23 27 29 27 25 21 16 20 20 17 16 15 16 15 13
7 7 4 5 5 5 3 1 2 10 7 6 6 12 3 16 19 18 21 27 26 29 31 32 30 28 25 23 25 26 24 21 22 23 22 21 24 30 28 27 19 21 20 16 15 15 16 14 15
3 6 5 3 2 5 3 4 3 5 8 16 22 16 13 16 22 23 19 20 25 28 30 33 32 28 27 26 23 24 23 21 23 23 22 22 21 22 22 23 22 22 19 15 14 18 15 14 12
1 3 3 5 2 2 3 1 2 5 10 16 19 26 23 24 27 30 22 7 14 23 30 31 31 31 31 27 23 21 24 22 22 22 22 19 15 15 18 17 21 20 19 15 14 14 14 14 13
7 2 4 4 0 3 5 5 4 3 6 6 10 18 27 28 27 28 26 9 12 23 29 34 35 35 34 31 27 20 20 22 19 20 20 15 15 18 20 20 21 19 17 16 16 15 17 14 11
5 4 4 4 3 3 2 6 5 5 1 3 5 20 25 27 30 34 28 9 11 22 26 27 31 32 34 34 32 25 21 21 21 18 17 15 17 20 22 22 21 20 17 15 18 19 18 17 15
5 3 4 5 6 2 4 6 4 6 6 4 7 13 18 23 23 26 25 13 11 18 22 17 12 21 29 33 34 30 24 23 23 18 17 14 16 20 22 23 24 23 21 19 20 22 21 19 18
Wind_Direction
8 359 35 344 57 55 358 357 346 91 282 200 157 177 143 28 138 203 142 157 161 156 154 153 158 159 158 155 157 156 155 154 154 154 155 157 153 153 156 154 154 150 145 142 132 130 126 122 120
8 331 356 50 73 61 330 337 55 40 99 107 93 93 57 71 99 140 147 158 164 157 158 155 156 164 164 160 157 155 161 163 163 164 166 162 159 157 162 160 157 154 155 155 146 146 143 140 136
342 356 22 65 67 79 87 295 124 109 135 121 104 70 127 121 147 142 153 157 163 162 160 157 159 163 164 161 156 153 153 159 168 171 170 168 168 165 164 162 161 162 161 159 158 156 157 151 148
313 10 59 72 103 49 270 180 187 147 85 107 114 75 85 30 140 151 154 160 164 163 163 161 161 161 160 162 161 156 156 155 162 164 182 175 175 175 173 171 172 174 176 172 172 172 175 176 184
258 27 57 40 95 192 338 236 166 107 96 70 117 82 59 144 144 154 157 161 164 163 164 165 165 166 165 165 166 165 163 160 161 173 183 177 181 182 182 179 182 181 178 179 183 204 216 220 230
147 327 57 23 120 174 214 184 130 113 135 109 94 100 117 187 162 157 161 164 168 165 166 169 169 170 170 171 174 176 174 172 176 181 177 181 184 199 192 190 185 184 185 192 196 209 227 243 248
158 145 128 338 333 126 157 148 158 170 146 92 132 94 144 172 169 160 163 170 175 175 172 175 177 179 180 178 180 182 181 183 186 191 191 193 191 201 202 199 197 195 197 201 211 232 252 256 259
192 115 59 215 167 195 133 139 165 126 181 154 156 152 168 172 171 168 170 174 180 182 184 184 183 184 185 181 185 188 189 193 198 203 210 216 209 211 219 213 211 209 212 214 234 255 254 256 243
178 60 160 193 169 141 115 111 188 234 157 137 183 177 198 169 176 172 173 177 181 184 186 190 190 189 189 184 184 191 193 195 201 208 219 213 216 216 208 214 214 215 218 236 255 252 249 235 205
118 119 218 212 174 122 146 153 179 153 183 187 164 161 162 173 182 180 178 179 181 186 188 195 196 197 197 191 192 195 192 199 197 198 216 204 215 218 222 221 213 216 228 245 249 246 232 210 197
169 164 212 206 159 140 175 173 184 153 245 213 174 164 166 180 186 191 188 191 185 191 196 199 201 199 205 199 198 198 194 195 197 197 199 196 201 210 221 219 204 213 230 236 237 220 208 198 195
161 214 174 186 187 171 157 180 208 178 216 187 184 170 169 184 192 197 198 193 195 198 206 203 204 204 206 204 205 203 202 198 198 196 193 184 170 173 178 176 196 221 222 215 212 209 204 202 207
350 216 203 183 212 218 170 184 198 203 210 166 178 177 181 188 196 200 199 202 191 209 213 205 202 204 205 202 202 199 201 197 184 194 196 196 185 192 184 188 196 209 216 214 209 202 202 205 191
271 283 218 206 218 231 177 224 184 214 180 166 177 182 189 193 200 199 208 206 205 218 211 204 205 201 196 198 198 198 199 187 192 200 201 205 200 203 198 197 198 221 208 205 204 201 203 212 217
331 326 276 225 210 240 165 297 229 190 178 176 186 193 193 200 201 208 210 209 213 218 208 210 207 205 202 204 203 205 199 195 197 191 198 207 205 211 200 197 219 230 234 217 214 227 234 236 238
4 52 0 279 170 228 148 267 240 196 180 186 188 193 199 198 203 210 215 217 216 217 212 216 212 211 212 211 206 206 203 205 209 207 207 215 214 218 214 222 236 227 232 235 235 234 243 237 240
359 319 235 304 210 131 171 255 279 187 187 191 196 196 199 202 207 213 218 222 219 222 217 218 221 219 218 217 220 216 221 222 218 217 216 219 220 219 224 239 235 236 229 229 228 232 237 244 246
292 333 299 238 293 175 214 259 190 198 195 200 201 201 204 207 211 216 218 223 223 222 220 221 223 223 222 225 223 218 225 225 225 222 218 219 222 226 224 230 228 231 235 234 233 242 247 233 241
267 230 246 260 228 214 242 263 267 194 213 211 203 207 208 212 217 218 222 227 225 223 218 218 221 225 224 226 220 213 226 225 225 225 222 219 221 226 228 229 231 233 241 242 221 222 220 216 227
227 266 285 301 324 173 223 271 269 178 216 212 207 207 215 215 218 221 222 223 224 220 216 215 220 226 225 226 226 224 231 232 231 236 228 228 225 228 236 235 228 225 233 220 215 221 228 229 217
218 216 238 224 327 337 333 307 316 264 251 248 224 223 219 213 214 213 216 219 220 218 217 215 216 220 223 224 225 228 235 236 231 227 223 228 228 222 236 242 233 231 233 243 240 224 224 220 228
268 191 237 278 57 284 59 282 315 317 316 21 205 201 213 211 216 210 211 212 215 216 219 217 218 218 219 223 224 230 237 232 231 232 233 234 233 228 229 230 234 237 238 235 226 212 222 221 225
227 20 11 353 71 5 341 73 270 336 353 341 296 237 218 216 213 209 210 209 213 211 215 218 217 218 224 221 224 230 239 244 249 245 241 241 238 233 227 232 254 240 234 223 206 215 223 230 231
38 55 39 44 50 29 259 140 287 333 316 1 23 341 246 224 217 211 207 206 211 212 218 221 217 217 222 226 226 228 237 241 237 236 238 242 242 236 235 235 243 222 222 210 211 218 221 232 224
69 51 354 3 5 233 342 61 281 328 355 113 60 18 22 212 191 169 177 193 208 215 220 223 219 221 222 221 227 231 232 238 246 245 249 248 244 235 237 229 240 228 211 207 214 213 220 230 227
35 128 148 223 245 268 314 358 317 323 52 67 62 65 94 123 137 153 158 185 214 217 228 232 225 221 225 226 229 234 237 241 247 251 262 266 250 245 233 232 224 217 211 213 220 226 225 224 227
26 3 196 109 56 6 295 206 335 356 31 45 55 68 91 127 147 139 132 96 268 235 236 233 232 232 232 233 233 239 239 245 249 255 267 265 248 223 216 219 210 212 213 211 219 218 215 218 229
97 182 24 9 287 279 293 286 228 324 38 25 43 73 103 133 143 147 147 126 245 235 239 231 232 234 236 238 242 242 245 248 253 256 264 250 230 227 223 207 208 213 209 212 218 216 206 213 218
17 16 39 114 125 165 279 267 201 194 225 80 91 103 120 143 153 158 169 178 175 246 241 242 232 237 240 241 243 245 247 254 249 248 260 246 232 221 217 206 208 204 206 215 219 210 210 217 219
88 93 106 109 295 186 158 273 253 197 211 222 117 116 117 149 163 178 189 178 209 227 229 243 254 254 253 247 245 247 248 251 248 247 243 226 239 230 218 213 211 213 215 218 218 209 218 220 218